Volver al catálogo

USA 181 DEB

ActivoLEO
NORAD 28541·DEBRIS·🇺🇸 United States

Lanzado Feb 3, 2005 desde Cape Canaveral Space Force Station

Loading…

Próximos Pases (próximas 24 horas)

TLE

ObsoletoSource: Mike McCants

Época: Sep 1, 2026, 21:26 UTC

1 28541U 05004C   26244.89356515 0.00000000  00000-0  00000-0 0    02
2 28541  63.4002 231.7942 0561733   4.5002 355.4998 13.40702833    05

Sigue USA 181 DEB en tiempo real con AllMySat

Download on the App Store